Location: Fort Worth, Tx
(32.7431°N, 97.3695°W)
Time: 18:20:11
(UTC-05:00)

X-37B - Pass Details

Date: 05 December 2022
Orbit: 277 x 277 km, 45.0° (Epoch: 01 November)

Event Time Altitude Azimuth Distance (km) Brightness Sun altitude
Rises 19:57:43 0° 250° (WSW) 1,901 5.7 -19.5°
Reaches altitude 10° 19:59:42 10° 260° (W) 1,092 4.1 -19.9°
Enters shadow 20:01:14 27° 288° (WNW) 565 2.0 -20.2°
